Overview Statistics Trail Chart Weather Telemetry Raw packets
 

This is the latest recevied weather packets stored in our database for station/object 4S6DRJ-13. If no packets are shown the sender has not sent any weather packets the latest 10 day(s).

<< 325 326 327 328 329 330 331 >>
Time Temp. Humidity Pressure Rain* Wind** Luminosity Snow
1787983339 31.11° C 73% 1010.4 hPa 0 mm 2.24 m/s, 269° 428 W/m² -
1787983278 31.11° C 73% 1010.4 hPa 0 mm 2.24 m/s, 283° 384 W/m² -
1787983217 31.11° C 73% 1010.5 hPa 0 mm 1.34 m/s, 322° 1112 W/m² -
1787983156 31.11° C 74% 1010.3 hPa 0 mm 2.24 m/s, 343° 1120 W/m² -
1787983095 31.11° C 74% 1010.5 hPa 0 mm 0.89 m/s, 210° 1122 W/m² -
1787983034 31.11° C 73% 1010.6 hPa 0 mm 1.34 m/s, 196° 506 W/m² -
1787982973 31.11° C 73% 1010.5 hPa 0 mm 2.24 m/s, 178° 458 W/m² -
1787982912 31.11° C 74% 1010.5 hPa 0 mm 0.89 m/s, 265° 1125 W/m² -
1787982851 31.11° C 75% 1010.5 hPa 0 mm 0.89 m/s, 195° 1122 W/m² -
1787982790 31.11° C 74% 1010.5 hPa 0 mm 1.34 m/s, 163° 484 W/m² -
1787982729 31.11° C 74% 1010.6 hPa 0 mm 1.79 m/s, 287° 535 W/m² -
1787982668 31.11° C 75% 1010.6 hPa 0 mm 2.24 m/s, 278° 598 W/m² -
1787982607 30.56° C 75% 1010.7 hPa 0 mm 1.79 m/s, 235° 783 W/m² -
1787982546 30.56° C 75% 1010.7 hPa 0 mm 0.89 m/s, 203° 465 W/m² -
1787982484 30.56° C 76% 1010.4 hPa 0 mm 1.34 m/s, 137° 1120 W/m² -
1787982424 30.56° C 76% 1010.6 hPa 0 mm 2.68 m/s, 88° 394 W/m² -
1787982363 30.56° C 76% 1010.7 hPa 0 mm 3.58 m/s, 330° 1117 W/m² -
1787982302 30.56° C 75% 1010.6 hPa 0 mm 3.13 m/s, 273° 1114 W/m² -
1787982240 30.56° C 76% 1010.7 hPa 0 mm 2.24 m/s, 252° 1121 W/m² -
1787982180 30.56° C 77% 1010.6 hPa 0 mm 1.79 m/s, 168° 416 W/m² -
1787982119 30.56° C 77% 1010.8 hPa 0 mm 0.89 m/s, 349° 419 W/m² -
1787982058 30.56° C 77% 1010.5 hPa 0 mm 1.34 m/s, 193° 312 W/m² -
1787981997 30° C 77% 1010.8 hPa 0 mm 1.79 m/s, 219° 460 W/m² -
1787981936 30° C 77% 1010.7 hPa 0 mm 1.34 m/s, 214° 1124 W/m² -
1787981875 30.56° C 76% 1010.8 hPa 0 mm 3.13 m/s, 239° 1121 W/m² -

* Rain latest hour (hover to see other rain measurements)
** Current wind speed in m/s (hover to see current wind gust speed)